{"data":{"norad_id":55421,"intl_designator":"2023-014AG","name":"STARLINK-5598","alt_names":[],"object_type":"PAYLOAD","status":"ACTIVE","operator":null,"country":"US","launch_date":"2023-01-31","launch_site_code":"AFWTR","launch_vehicle":null,"mission":null,"orbit_class":"UNKNOWN","rcs_meters":null,"size_class":null,"mass_kg":null,"dimensions":null,"purposes":["comms"],"wikipedia_slug":null,"has_3d_model":false,"image_url":null,"decayed_at":null,"tle_current":{"epoch":"2026-09-20T22:00:03.000096Z","epoch_age_seconds":60623,"freshness":"FRESH","line1":"1 55421U 23014AG  26263.91670139  .00091113  00000+0  64215-2 0  9996","line2":"2 55421  70.0019 312.1563 0003374 290.2209 190.8651 15.04476085  5777","mean_motion":15.04476085,"eccentricity":0.0003374,"inclination_deg":70.0019,"raan_deg":312.1563,"arg_perigee_deg":290.2209,"mean_anomaly_deg":190.8651,"bstar":0.0064215,"rev_number":577,"period_min":95.714382857737,"perigee_km":550.77575891424,"apogee_km":555.45296733408,"semimajor_km":6931.2513631242,"source":"CELESTRAK","updated_at":"2026-09-21T09:00:33.219804Z"}}}